Location: Cadeilhan
(42.8161°N, 0.3161°E)
Time: 09:30:32
(UTC+00:00)

Cosmos 1943 Rocket - Pass Details

Date: 18 February 2020
Orbit: 813 x 842 km, 71.0° (Epoch: 08 April)

Event Time Altitude Azimuth Distance (km) Brightness Sun altitude
Exits shadow 04:13:09 12° 351° (N) 2,275 4.4 -29.8°
Maximum altitude 04:17:54 39° 58° (ENE) 1,202 3.4 -29.0°
Drops below altitude 10° 04:23:01 10° 127° (SE) 2,399 5.1 -28.0°
Sets 04:25:35 0° 135° (SE) 3,329 5.8 -27.6°
